Time,TemperatureF,DewpointF,PressureIn,WindDirection,WindDirectionDegrees,WindSpeedMPH,WindSpeedGustMPH,Humidity,HourlyPrecipIn,Conditions,Clouds,dailyrainin,SoftwareType,DateUTC
2013-04-10 00:00:00,59.3,36.0,30.00,NE,38,1.0,5.0,42,0.00,,,0.00,,2013-04-10 07:00:00,
2013-04-10 00:10:00,58.8,39.0,30.00,ENE,67,5.0,5.0,47,0.00,,,0.00,,2013-04-10 07:10:00,
2013-04-10 00:20:00,60.0,37.0,30.01,ENE,65,1.0,4.0,43,0.00,,,0.00,,2013-04-10 07:20:00,
2013-04-10 00:30:00,57.2,40.0,30.01,SSW,201,2.0,6.0,52,0.00,,,0.00,,2013-04-10 07:30:00,
2013-04-10 00:40:00,57.7,38.0,30.01,South,180,4.0,4.0,47,0.00,,,0.00,,2013-04-10 07:40:00,
2013-04-10 00:50:00,58.8,37.0,30.01,ESE,110,2.0,4.0,44,0.00,,,0.00,,2013-04-10 07:50:00,
2013-04-10 01:00:00,58.9,36.0,30.02,SE,142,5.0,5.0,43,0.00,,,0.00,,2013-04-10 08:00:00,
2013-04-10 01:10:00,58.9,36.0,30.01,SE,143,0.0,3.0,42,0.00,,,0.00,,2013-04-10 08:10:00,
2013-04-10 01:20:00,59.1,35.0,30.02,East,84,0.0,5.0,41,0.00,,,0.00,,2013-04-10 08:20:00,
2013-04-10 01:30:00,58.0,38.0,30.02,ESE,107,5.0,5.0,47,0.00,,,0.00,,2013-04-10 08:30:00,
2013-04-10 01:40:00,57.2,38.0,30.02,SE,131,2.0,3.0,48,0.00,,,0.00,,2013-04-10 08:40:00,
2013-04-10 01:50:00,56.7,38.0,30.02,SE,131,4.0,5.0,49,0.00,,,0.00,,2013-04-10 08:50:00,
2013-04-10 02:00:00,56.7,38.0,30.02,SE,132,0.0,2.0,49,0.00,,,0.00,,2013-04-10 09:00:00,
2013-04-10 02:10:00,56.0,37.0,30.01,SE,134,4.0,5.0,48,0.00,,,0.00,,2013-04-10 09:10:00,
2013-04-10 02:20:00,56.9,38.0,30.01,SE,130,3.0,4.0,49,0.00,,,0.00,,2013-04-10 09:20:00,
2013-04-10 02:30:00,56.8,37.0,30.01,SE,134,0.0,4.0,47,0.00,,,0.00,,2013-04-10 09:30:00,
2013-04-10 02:40:00,56.5,38.0,30.01,SE,144,0.0,0.0,49,0.00,,,0.00,,2013-04-10 09:40:00,
2013-04-10 02:50:00,56.7,37.0,30.01,SE,144,2.0,3.0,48,0.00,,,0.00,,2013-04-10 09:50:00,
2013-04-10 03:00:00,56.8,37.0,30.01,SE,144,1.0,5.0,48,0.00,,,0.00,,2013-04-10 10:00:00,
2013-04-10 03:10:00,57.5,37.0,30.01,SE,144,4.0,4.0,46,0.00,,,0.00,,2013-04-10 10:10:00,
2013-04-10 03:20:00,56.0,36.0,30.02,SE,140,4.0,5.0,46,0.00,,,0.00,,2013-04-10 10:20:00,
2013-04-10 03:30:00,56.4,36.0,30.02,SE,140,3.0,3.0,46,0.00,,,0.00,,2013-04-10 10:30:00,
2013-04-10 03:40:00,55.8,36.0,30.02,SE,129,0.0,4.0,47,0.00,,,0.00,,2013-04-10 10:40:00,
2013-04-10 03:50:00,56.1,37.0,30.02,SSE,155,0.0,1.0,48,0.00,,,0.00,,2013-04-10 10:50:00,
2013-04-10 04:00:00,57.0,37.0,30.02,SSE,162,0.0,4.0,48,0.00,,,0.00,,2013-04-10 11:00:00,
2013-04-10 04:10:00,56.2,37.0,30.02,SSE,162,3.0,3.0,49,0.00,,,0.00,,2013-04-10 11:10:00,
2013-04-10 04:20:00,55.9,37.0,30.03,SSE,162,0.0,3.0,49,0.00,,,0.00,,2013-04-10 11:20:00,
2013-04-10 04:30:00,56.0,37.0,30.02,SSE,167,0.0,5.0,48,0.00,,,0.00,,2013-04-10 11:30:00,
2013-04-10 04:40:00,55.6,37.0,30.03,South,172,0.0,8.0,49,0.00,,,0.00,,2013-04-10 11:40:00,
2013-04-10 04:50:00,55.9,36.0,30.03,South,173,0.0,5.0,48,0.00,,,0.00,,2013-04-10 11:50:00,
2013-04-10 05:00:00,56.0,36.0,30.03,South,173,0.0,3.0,47,0.00,,,0.00,,2013-04-10 12:00:00,
2013-04-10 05:10:00,55.6,35.0,30.03,South,173,0.0,1.0,46,0.00,,,0.00,,2013-04-10 12:10:00,
2013-04-10 05:20:00,56.2,35.0,30.04,South,172,3.0,3.0,44,0.00,,,0.00,,2013-04-10 12:20:00,
2013-04-10 05:30:00,56.0,36.0,30.04,South,171,0.0,4.0,47,0.00,,,0.00,,2013-04-10 12:30:00,
2013-04-10 05:40:00,55.3,35.0,30.04,South,171,0.0,1.0,47,0.00,,,0.00,,2013-04-10 12:40:00,
2013-04-10 05:50:00,55.2,35.0,30.04,South,171,0.0,2.0,47,0.00,,,0.00,,2013-04-10 12:50:00,
2013-04-10 06:00:00,55.5,35.0,30.05,South,171,0.0,2.0,46,0.00,,,0.00,,2013-04-10 13:00:00,
2013-04-10 06:10:00,53.9,36.0,30.06,South,170,0.0,2.0,50,0.00,,,0.00,,2013-04-10 13:10:00,
2013-04-10 06:20:00,52.4,37.0,30.06,NNE,22,3.0,4.0,56,0.00,,,0.00,,2013-04-10 13:20:00,
2013-04-10 06:30:00,52.7,38.0,30.06,NNE,15,0.0,2.0,57,0.00,,,0.00,,2013-04-10 13:30:00,
2013-04-10 06:40:00,53.1,36.0,30.06,NNE,15,0.0,3.0,52,0.00,,,0.00,,2013-04-10 13:40:00,
2013-04-10 06:50:00,53.3,36.0,30.07,NNE,21,0.0,2.0,51,0.00,,,0.00,,2013-04-10 13:50:00,
2013-04-10 07:00:00,54.0,36.0,30.07,NNE,21,0.0,1.0,51,0.00,,,0.00,,2013-04-10 14:00:00,
2013-04-10 07:10:00,55.8,35.0,30.08,NNE,21,0.0,2.0,45,0.00,,,0.00,,2013-04-10 14:10:00,
2013-04-10 07:20:00,55.0,37.0,30.08,NE,43,0.0,3.0,51,0.00,,,0.00,,2013-04-10 14:20:00,
2013-04-10 07:30:00,54.1,37.0,30.08,ENE,61,0.0,4.0,53,0.00,,,0.00,,2013-04-10 14:30:00,
2013-04-10 07:40:00,54.5,38.0,30.08,ENE,66,3.0,4.0,54,0.00,,,0.00,,2013-04-10 14:40:00,
2013-04-10 07:50:00,54.5,38.0,30.09,ESE,121,3.0,4.0,54,0.00,,,0.00,,2013-04-10 14:50:00,
2013-04-10 08:00:00,56.0,37.0,30.08,East,100,3.0,5.0,48,0.00,,,0.00,,2013-04-10 15:00:00,
2013-04-10 08:10:00,56.9,36.0,30.08,SSE,148,0.0,1.0,46,0.00,,,0.00,,2013-04-10 15:10:00,
2013-04-10 08:20:00,58.7,41.0,30.09,ESE,110,3.0,3.0,52,0.00,,,0.00,,2013-04-10 15:20:00,
2013-04-10 08:30:00,58.9,41.0,30.09,SE,135,2.0,3.0,52,0.00,,,0.00,,2013-04-10 15:30:00,
2013-04-10 08:40:00,59.4,40.0,30.09,SE,128,4.0,5.0,49,0.00,,,0.00,,2013-04-10 15:40:00,
2013-04-10 08:50:00,60.8,40.0,30.10,SE,130,2.0,4.0,46,0.00,,,0.00,,2013-04-10 15:50:00,
2013-04-10 09:00:00,62.0,40.0,30.09,SE,133,4.0,4.0,45,0.00,,,0.00,,2013-04-10 16:00:00,
2013-04-10 09:10:00,63.8,43.0,30.09,SE,126,5.0,8.0,47,0.00,,,0.00,,2013-04-10 16:10:00,
2013-04-10 09:20:00,64.7,40.0,30.09,SSE,149,5.0,7.0,40,0.00,,,0.00,,2013-04-10 16:20:00,
2013-04-10 09:30:00,66.0,42.0,30.09,SSE,149,5.0,6.0,41,0.00,,,0.00,,2013-04-10 16:30:00,
2013-04-10 09:40:00,67.0,44.0,30.09,SSE,155,2.0,6.0,43,0.00,,,0.00,,2013-04-10 16:40:00,
2013-04-10 09:50:00,68.0,41.0,30.10,South,173,1.0,6.0,37,0.00,,,0.00,,2013-04-10 16:50:00,
2013-04-10 10:00:00,67.8,35.0,30.10,SSW,199,7.0,15.0,30,0.00,,,0.00,,2013-04-10 17:00:00,
2013-04-10 10:10:00,67.6,34.0,30.10,South,181,13.0,14.0,29,0.00,,,0.00,,2013-04-10 17:10:00,
2013-04-10 10:20:00,68.1,34.0,30.10,SSW,201,8.0,14.0,28,0.00,,,0.00,,2013-04-10 17:20:00,
2013-04-10 10:30:00,68.8,35.0,30.10,SW,214,11.0,13.0,29,0.00,,,0.00,,2013-04-10 17:30:00,
2013-04-10 10:40:00,68.9,34.0,30.11,SSW,207,13.0,16.0,28,0.00,,,0.00,,2013-04-10 17:40:00,
2013-04-10 10:50:00,68.9,34.0,30.11,SSW,210,10.0,13.0,28,0.00,,,0.00,,2013-04-10 17:50:00,
2013-04-10 11:00:00,69.5,34.0,30.10,SSW,204,7.0,13.0,27,0.00,,,0.00,,2013-04-10 18:00:00,
2013-04-10 11:10:00,69.7,36.0,30.10,SSW,206,12.0,15.0,29,0.00,,,0.00,,2013-04-10 18:10:00,
2013-04-10 11:20:00,70.1,37.0,30.10,SSW,213,10.0,14.0,30,0.00,,,0.00,,2013-04-10 18:20:00,
2013-04-10 11:30:00,69.4,39.0,30.10,SW,218,10.0,14.0,33,0.00,,,0.00,,2013-04-10 18:30:00,
2013-04-10 11:40:00,69.3,36.0,30.10,SSW,212,12.0,17.0,29,0.00,,,0.00,,2013-04-10 18:40:00,
2013-04-10 11:50:00,69.2,38.0,30.10,SSW,212,10.0,14.0,32,0.00,,,0.00,,2013-04-10 18:50:00,
2013-04-10 12:00:00,69.5,38.0,30.10,West,262,11.0,14.0,31,0.00,,,0.00,,2013-04-10 19:00:00,
2013-04-10 12:10:00,69.0,34.0,30.09,WSW,252,15.0,15.0,27,0.00,,,0.00,,2013-04-10 19:10:00,
2013-04-10 12:20:00,68.0,36.0,30.09,WSW,248,11.0,13.0,31,0.00,,,0.00,,2013-04-10 19:20:00,
2013-04-10 12:30:00,70.0,39.0,30.09,WNW,297,7.0,10.0,32,0.00,,,0.00,,2013-04-10 19:30:00,
2013-04-10 12:40:00,69.9,34.0,30.08,West,279,10.0,12.0,27,0.00,,,0.00,,2013-04-10 19:40:00,
2013-04-10 12:50:00,70.2,37.0,30.08,WNW,283,6.0,11.0,30,0.00,,,0.00,,2013-04-10 19:50:00,
2013-04-10 13:00:00,70.9,38.0,30.08,NW,315,4.0,9.0,30,0.00,,,0.00,,2013-04-10 20:00:00,
2013-04-10 13:10:00,71.3,37.0,30.07,WNW,288,8.0,12.0,28,0.00,,,0.00,,2013-04-10 20:10:00,
2013-04-10 13:20:00,70.4,39.0,30.07,WNW,298,9.0,12.0,32,0.00,,,0.00,,2013-04-10 20:20:00,
2013-04-10 13:30:00,70.3,37.0,30.07,NW,325,9.0,12.0,30,0.00,,,0.00,,2013-04-10 20:30:00,
2013-04-10 13:40:00,70.6,38.0,30.06,WNW,298,5.0,11.0,31,0.00,,,0.00,,2013-04-10 20:40:00,
2013-04-10 13:50:00,70.5,37.0,30.05,NW,319,5.0,12.0,29,0.00,,,0.00,,2013-04-10 20:50:00,
2013-04-10 14:00:00,70.7,36.0,30.05,NW,315,9.0,11.0,28,0.00,,,0.00,,2013-04-10 21:00:00,
2013-04-10 14:10:00,71.0,37.0,30.05,WNW,282,7.0,12.0,29,0.00,,,0.00,,2013-04-10 21:10:00,
2013-04-10 14:20:00,72.7,36.0,30.05,NW,304,4.0,8.0,26,0.00,,,0.00,,2013-04-10 21:20:00,
2013-04-10 14:30:00,73.1,35.0,30.05,WNW,292,7.0,10.0,25,0.00,,,0.00,,2013-04-10 21:30:00,
2013-04-10 14:40:00,72.6,34.0,30.04,NW,322,7.0,13.0,24,0.00,,,0.00,,2013-04-10 21:40:00,
2013-04-10 14:50:00,73.0,36.0,30.03,NNW,342,7.0,8.0,26,0.00,,,0.00,,2013-04-10 21:50:00,
2013-04-10 15:00:00,73.8,35.0,30.03,NW,313,4.0,10.0,24,0.00,,,0.00,,2013-04-10 22:00:00,
2013-04-10 15:10:00,73.5,30.0,30.02,WNW,284,10.0,11.0,20,0.00,,,0.00,,2013-04-10 22:10:00,
2013-04-10 15:20:00,73.6,32.0,30.02,WNW,291,3.0,10.0,22,0.00,,,0.00,,2013-04-10 22:20:00,
2013-04-10 15:30:00,74.2,35.0,30.01,NNW,328,8.0,11.0,24,0.00,,,0.00,,2013-04-10 22:30:00,
2013-04-10 15:40:00,74.8,36.0,30.01,WNW,300,6.0,8.0,24,0.00,,,0.00,,2013-04-10 22:40:00,
2013-04-10 15:50:00,74.7,38.0,30.00,NW,318,4.0,7.0,26,0.00,,,0.00,,2013-04-10 22:50:00,
2013-04-10 16:00:00,73.3,32.0,30.00,West,261,8.0,10.0,22,0.00,,,0.00,,2013-04-10 23:00:00,
2013-04-10 16:10:00,72.7,39.0,30.00,West,269,7.0,8.0,30,0.00,,,0.00,,2013-04-10 23:10:00,
2013-04-10 16:20:00,71.2,40.0,30.00,WNW,292,7.0,7.0,32,0.00,,,0.00,,2013-04-10 23:20:00,
2013-04-10 16:30:00,68.0,47.0,30.00,West,278,4.0,10.0,47,0.00,,,0.00,,2013-04-10 23:30:00,
2013-04-10 16:40:00,67.8,46.0,29.99,NW,320,3.0,5.0,46,0.00,,,0.00,,2013-04-10 23:40:00,
2013-04-10 16:50:00,68.5,47.0,29.99,NW,309,4.0,5.0,47,0.00,,,0.00,,2013-04-10 23:50:00,
2013-04-10 17:00:00,68.2,48.0,29.99,NW,304,4.0,6.0,48,0.00,,,0.00,,2013-04-11 00:00:00,
2013-04-10 17:10:00,68.0,49.0,29.99,NE,38,3.0,5.0,51,0.00,,,0.00,,2013-04-11 00:10:00,
2013-04-10 17:20:00,66.3,50.0,29.99,NNW,335,4.0,5.0,56,0.00,,,0.00,,2013-04-11 00:20:00,
2013-04-10 17:30:00,66.6,49.0,29.99,NW,306,4.0,4.0,54,0.00,,,0.00,,2013-04-11 00:30:00,
2013-04-10 17:40:00,68.0,50.0,29.99,NNW,333,1.0,4.0,53,0.00,,,0.00,,2013-04-11 00:40:00,
2013-04-10 17:50:00,67.1,50.0,29.99,West,280,7.0,7.0,55,0.00,,,0.00,,2013-04-11 00:50:00,
2013-04-10 18:00:00,64.0,44.0,29.99,WNW,294,4.0,9.0,49,0.00,,,0.00,,2013-04-11 01:00:00,
2013-04-10 18:10:00,63.6,45.0,29.99,WNW,302,5.0,6.0,50,0.00,,,0.00,,2013-04-11 01:10:00,
2013-04-10 18:20:00,63.1,45.0,29.98,WNW,301,3.0,7.0,51,0.00,,,0.00,,2013-04-11 01:20:00,
2013-04-10 18:30:00,62.5,46.0,29.98,NW,311,0.0,3.0,55,0.00,,,0.00,,2013-04-11 01:30:00,
2013-04-10 18:40:00,62.9,45.0,29.98,NW,308,1.0,4.0,52,0.00,,,0.00,,2013-04-11 01:40:00,
2013-04-10 18:50:00,62.5,48.0,29.98,NW,311,1.0,4.0,59,0.00,,,0.00,,2013-04-11 01:50:00,
2013-04-10 19:00:00,60.7,47.0,29.98,NW,311,1.0,3.0,61,0.00,,,0.00,,2013-04-11 02:00:00,
2013-04-10 19:10:00,60.6,47.0,29.98,NW,311,2.0,2.0,60,0.00,,,0.00,,2013-04-11 02:10:00,
2013-04-10 19:20:00,60.3,46.0,29.98,NW,311,0.0,1.0,60,0.00,,,0.00,,2013-04-11 02:20:00,
2013-04-10 19:30:00,60.0,46.0,29.98,NW,311,0.0,0.0,59,0.00,,,0.00,,2013-04-11 02:30:00,
2013-04-10 19:40:00,59.7,46.0,29.98,NNW,331,0.0,0.0,60,0.00,,,0.00,,2013-04-11 02:40:00,
2013-04-10 19:50:00,57.9,47.0,29.98,South,186,4.0,6.0,68,0.00,,,0.00,,2013-04-11 02:50:00,
2013-04-10 20:00:00,55.4,48.0,29.98,South,169,1.0,4.0,75,0.00,,,0.00,,2013-04-11 03:00:00,
2013-04-10 20:10:00,54.9,47.0,29.99,SSE,165,1.0,3.0,76,0.00,,,0.00,,2013-04-11 03:10:00,
2013-04-10 20:20:00,54.8,48.0,29.98,SE,132,5.0,5.0,77,0.00,,,0.00,,2013-04-11 03:20:00,
2013-04-10 20:30:00,54.6,48.0,29.99,ESE,115,2.0,4.0,79,0.00,,,0.00,,2013-04-11 03:30:00,
2013-04-10 20:40:00,54.7,48.0,29.99,SE,143,2.0,5.0,78,0.00,,,0.00,,2013-04-11 03:40:00,
2013-04-10 20:50:00,54.5,48.0,29.98,SE,146,6.0,7.0,79,0.00,,,0.00,,2013-04-11 03:50:00,
2013-04-10 21:00:00,53.9,48.0,29.99,SSE,153,4.0,4.0,80,0.00,,,0.00,,2013-04-11 04:00:00,
2013-04-10 21:10:00,53.3,48.0,29.99,SSE,162,0.0,4.0,83,0.00,,,0.00,,2013-04-11 04:10:00,
2013-04-10 21:20:00,54.0,48.0,29.99,SE,134,3.0,4.0,81,0.00,,,0.00,,2013-04-11 04:20:00,
2013-04-10 21:30:00,53.6,48.0,30.00,SE,131,5.0,5.0,82,0.00,,,0.00,,2013-04-11 04:30:00,
2013-04-10 21:40:00,53.1,48.0,30.00,SE,138,5.0,6.0,84,0.00,,,0.00,,2013-04-11 04:40:00,
2013-04-10 21:50:00,52.7,48.0,30.00,SE,144,6.0,7.0,85,0.00,,,0.00,,2013-04-11 04:50:00,
2013-04-10 22:00:00,52.6,49.0,30.00,SSE,150,5.0,5.0,86,0.00,,,0.00,,2013-04-11 05:00:00,
2013-04-10 22:10:00,52.4,49.0,30.00,SSE,156,0.0,3.0,87,0.00,,,0.00,,2013-04-11 05:10:00,
2013-04-10 22:20:00,53.0,49.0,30.00,SSE,155,1.0,3.0,85,0.00,,,0.00,,2013-04-11 05:20:00,
2013-04-10 22:30:00,53.6,49.0,30.00,SSE,155,0.0,1.0,83,0.00,,,0.00,,2013-04-11 05:30:00,
2013-04-10 22:40:00,54.6,48.0,30.00,SSE,155,0.0,2.0,79,0.00,,,0.00,,2013-04-11 05:40:00,
2013-04-10 22:50:00,55.0,47.0,30.00,WNW,295,2.0,4.0,75,0.00,,,0.00,,2013-04-11 05:50:00,
2013-04-10 23:00:00,54.5,47.0,30.00,NNW,333,0.0,3.0,77,0.00,,,0.00,,2013-04-11 06:00:00,
2013-04-10 23:10:00,54.0,47.0,30.00,NNW,334,0.0,3.0,78,0.00,,,0.00,,2013-04-11 06:10:00,
2013-04-10 23:20:00,54.0,48.0,30.00,NNW,334,0.0,0.0,80,0.00,,,0.00,,2013-04-11 06:20:00,
2013-04-10 23:30:00,53.6,48.0,30.00,NNW,334,0.0,0.0,81,0.00,,,0.00,,2013-04-11 06:30:00,
2013-04-10 23:40:00,53.1,47.0,30.00,NNW,333,0.0,0.0,81,0.00,,,0.00,,2013-04-11 06:40:00,
2013-04-10 23:50:00,52.4,47.0,30.00,NNW,333,2.0,3.0,81,0.00,,,0.00,,2013-04-11 06:50:00,